Location: Unspecified
(0.0000°N, 0.0000°E)
Time: 22:28:36
(UTC+00:00)

STARLINK-32949 - Visible Passes

Search period start: 20 June 2025 00:00
Search period end: 30 June 2025 00:00
Orbit: 482 x 484 km, 43.0° (Epoch: 20 June)

Date Brightness Start Highest point End Pass type
(mag) Time Alt. Az. Time Alt. Az. Time Alt. Az.
22 Jun ? 20:05:29 10° NNW 20:06:15 14° N 20:06:15 14° N visible
23 Jun ? 19:37:46 10° NNW 19:40:04 23° NNE 19:40:04 23° NNE visible
24 Jun ? 19:10:02 10° N 19:13:10 24° NE 19:13:56 23° ENE visible
25 Jun ? 18:42:19 10° N 18:45:22 23° NE 18:47:51 13° E visible
25 Jun ? 20:21:18 10° W 20:22:07 14° W 20:22:07 14° W visible
26 Jun ? 19:53:26 10° W 19:56:03 21° SW 19:56:03 21° SW visible
27 Jun ? 19:25:33 10° W 19:28:33 22° SW 19:30:01 18° SSW visible
28 Jun ? 05:32:59 10° S 05:35:53 21° SE 05:38:47 10° E visible
28 Jun ? 18:57:40 10° W 19:00:44 23° SW 19:03:47 10° S visible
29 Jun ? 05:05:13 10° S 05:08:04 20° SE 05:10:53 10° E visible
29 Jun ? 18:29:47 10° W 18:32:54 24° SW 18:36:00 10° S visible
